Tracking 31032 objects as of 13-Jul-2025
HD Live streaming from Space Station
objects crossing your sky now

CZ-6A DEB

Track CZ-6A DEB now!
10-day predictions


NORAD ID: 54506
Int'l Code: 2022-151JJ
Perigee: 758.2 km
Apogee: 908.9 km
Inclination: 98.9 °
Period: 101.4 minutes
Semi major axis: 7204 km
RCS: Unknown
Launch date: November 11, 2022
Source: People's Republic of China (PRC)
Launch site: Taiyaun Space Center, China (TSC)

Note: This is SATELLITE DEBRIS
Your satellite tracking list
Your tracking list is empty




NASA's NSSDC Master Catalog

Two Line Element Set (TLE):
1 54506U 22151JJ  25194.03350877  .00001500  00000-0  69153-3 0  9998
2 54506  98.9080 217.1324 0104649 114.9139 246.2956 14.19688672137511
Source of the keplerian elements: AFSPC